Wetbulb
56.95 57.26 57.88 58.51 58.60 58.15 58.45 59.56 59.49 59.71 58.92 59.27 61.99 63.15 62.90 63.05 62.50 59.62 55.42 60.94 61.91 63.55 63.65 60.96 57.43 55.98 54.31 52.69 53.41 55.16 47.81 45.30 47.86 48.72 49.84 52.02 50.43 52.10 53.34 53.48 53.25 56.18 57.52 60.61 63.50
56.57 56.89 57.22 57.78 58.60 58.40 58.30 58.64 59.23 59.54 59.14 58.51 59.51 62.75 62.72 62.18 58.47 56.33 62.10 65.07 64.34 63.56 61.01 57.62 53.71 54.12 51.03 50.30 51.28 48.67 47.61 48.46 52.46 51.67 48.57 51.45 50.98 51.46 49.87 52.50 52.91 55.38 61.35 62.66 63.37
56.41 56.67 56.70 57.22 58.56 58.49 58.75 58.39 58.65 59.24 58.75 58.62 59.89 62.36 62.20 61.12 55.15 55.26 64.34 64.63 63.88 63.09 60.61 61.12 58.77 53.69 49.95 50.02 49.32 49.09 48.98 52.67 49.67 48.97 48.72 50.30 49.46 52.40 49.68 49.48 52.99 53.64 59.10 60.46 61.66
56.04 56.49 56.75 56.69 58.00 57.95 58.63 58.60 58.23 59.07 58.10 58.10 59.57 62.17 61.37 58.55 46.07 58.76 63.42 63.81 63.73 59.96 58.01 58.90 57.95 52.67 51.17 48.37 50.55 48.44 50.26 48.07 50.35 48.89 48.80 47.78 51.00 48.96 50.16 47.56 51.89 57.37 60.24 59.80 60.02
55.59 55.90 56.22 56.83 57.53 57.80 58.43 58.31 57.88 58.27 58.96 59.32 58.10 61.48 58.70 52.64 52.82 58.29 62.53 62.27 59.70 58.64 55.78 56.41 56.53 53.51 50.19 50.79 50.95 49.57 48.36 46.68 48.75 49.38 47.94 48.97 46.74 48.70 49.11 51.15 52.48 60.10 59.65 59.13 59.43
55.26 55.58 55.83 56.27 57.08 57.44 58.29 58.30 58.21 58.04 58.71 57.66 58.12 59.62 55.83 48.02 59.70 59.27 61.33 58.99 57.16 56.97 56.06 57.41 57.08 55.62 52.55 51.73 49.87 52.23 50.33 46.58 47.84 46.70 46.54 46.91 46.73 46.46 48.34 50.87 51.83 58.48 58.18 59.12 59.88
54.92 55.09 55.61 56.21 56.94 57.44 57.94 58.11 58.05 58.24 58.29 57.57 57.09 59.21 54.16 51.27 59.94 58.54 60.16 57.56 57.63 56.54 54.54 58.15 59.16 55.81 54.15 49.64 52.07 52.63 46.84 47.88 47.70 47.13 44.94 45.72 44.54 43.83 48.55 50.35 50.99 56.42 57.29 59.16 60.03
54.57 55.03 55.55 56.43 56.88 56.98 57.29 57.43 57.55 57.81 58.11 58.07 56.71 58.10 50.30 59.09 60.63 58.08 58.03 56.68 57.67 57.82 57.57 58.66 57.77 54.67 52.55 52.42 50.12 46.90 46.22 41.08 46.27 45.34 44.57 43.94 43.54 48.77 49.84 49.24 49.56 52.17 54.48 57.68 59.51
54.40 54.95 55.63 56.10 55.90 56.40 56.96 56.87 57.00 57.25 57.50 57.21 52.68 53.63 48.24 58.75 53.59 56.67 57.57 54.68 57.20 57.34 57.32 57.53 55.46 51.53 50.46 46.21 44.27 44.43 39.42 40.46 43.31 47.13 43.00 41.79 43.09 48.69 46.82 47.83 48.30 49.65 52.30 55.64 57.17
54.27 54.81 54.81 54.59 55.00 55.99 56.29 56.24 56.50 56.49 55.83 56.00 53.69 48.49 48.65 49.00 54.05 55.55 58.28 57.81 54.67 53.93 52.66 52.79 50.65 47.26 47.57 44.92 39.61 40.43 42.03 41.87 42.31 43.91 43.84 41.06 42.78 44.40 45.59 46.31 46.97 47.65 50.53 53.30 55.08
53.98 52.76 53.36 54.28 54.50 54.72 54.50 52.59 49.05 47.71 49.66 46.16 49.34 48.67 47.78 53.47 56.49 54.42 57.38 55.20 54.06 51.11 45.83 48.65 45.38 42.50 45.21 46.50 48.67 46.15 45.35 43.85 46.59 46.72 43.44 42.51 44.04 46.58 49.03 46.41 45.19 45.66 46.75 50.65 54.56
53.81 53.53 52.75 52.80 52.61 54.19 52.96 47.59 47.12 50.35 41.57 47.24 50.84 50.73 51.23 54.06 48.63 52.08 56.96 50.41 49.39 44.30 44.85 43.20 41.53 47.28 49.02 48.18 47.71 47.32 44.78 45.56 46.04 46.24 44.66 44.88 44.31 47.47 49.24 49.75 48.43 46.98 46.53 47.35 50.99
52.98 53.39 53.59 53.35 52.98 50.35 48.81 49.00 53.39 52.62 44.22 47.33 49.44 48.69 48.69 52.45 47.47 48.51 53.21 50.21 47.21 43.90 44.03 42.83 45.26 49.18 48.46 47.44 46.26 46.64 45.25 45.46 43.95 41.85 41.85 39.95 40.48 43.25 47.79 50.24 51.12 51.40 49.55 48.69 48.39
52.29 52.28 53.16 52.78 47.35 48.26 45.58 51.08 52.72 52.68 36.00 39.90 44.33 47.46 49.59 50.59 45.50 52.51 53.71 49.88 45.57 42.22 44.24 44.01 48.06 47.53 46.87 46.46 47.46 42.99 45.19 44.84 41.11 40.03 37.28 41.74 34.88 42.97 46.69 47.12 49.23 50.92 50.18 48.93 47.49
51.72 52.00 52.57 51.49 48.45 45.83 48.66 51.59 53.31 49.39 25.26 40.87 43.78 50.74 50.63 46.34 47.03 47.94 53.52 47.60 44.05 42.76 42.99 40.63 42.65 45.91 45.41 46.61 48.55 42.23 43.37 39.72 38.69 36.37 36.25 35.18 32.21 38.07 42.44 44.90 47.10 49.35 50.43 50.44 49.28
51.17 51.63 52.20 50.16 49.18 49.44 50.49 47.73 50.93 34.67 26.32 33.22 40.73 41.99 44.32 45.30 46.25 48.53 48.03 47.38 48.62 44.12 42.92 41.64 47.75 48.07 46.75 43.95 44.02 42.31 39.68 38.69 36.23 36.51 31.11 36.53 34.23 35.07 40.32 42.81 44.49 48.25 50.57 51.41 50.66
50.38 50.93 50.35 50.36 44.09 47.32 48.80 39.63 33.81 28.46 32.71 28.65 35.15 41.57 42.02 40.54 42.93 44.55 40.65 39.61 38.46 34.33 35.58 39.83 43.53 42.96 45.24 39.96 42.09 40.49 39.17 31.16 30.42 29.36 30.10 33.86 34.00 38.65 43.46 45.40 43.61 45.01 45.93 48.05 50.40
49.89 50.17 49.56 49.18 49.92 47.23 39.75 31.93 25.57 32.44 31.96 35.67 39.13 40.19 38.04 40.02 39.20 41.13 39.30 37.72 41.62 40.63 35.93 32.64 30.80 40.40 44.69 41.48 37.50 38.14 39.04 31.27 25.62 25.94 28.11 28.33 29.23 35.85 43.00 43.36 42.16 43.18 45.53 42.72 43.58
49.63 47.24 46.60 48.07 48.67 43.65 33.08 26.20 28.55 32.62 34.33 35.12 38.46 35.93 32.96 38.78 36.95 39.00 39.07 38.12 40.42 42.82 36.75 34.93 33.27 40.67 44.53 43.53 42.46 37.59 36.90 37.90 28.64 22.43 25.07 29.60 33.83 39.66 42.03 41.49 41.49 41.04 41.31 39.98 41.20
44.87 43.32 43.08 45.97 45.35 40.07 31.40 29.10 31.69 37.30 38.08 39.01 34.38 37.36 32.03 34.34 35.86 36.85 37.79 41.41 40.52 43.71 43.78 39.34 30.64 38.09 41.98 43.34 41.43 40.49 41.57 33.82 32.63 21.91 20.68 28.28 28.87 32.35 36.04 38.66 41.17 40.16 41.68 42.65 43.12
43.56 37.80 44.12 45.61 44.40 33.89 27.75 30.96 33.06 37.48 40.64 38.90 37.04 36.32 36.20 33.16 37.15 36.25 36.96 40.90 43.34 42.78 43.62 41.14 35.02 32.71 38.02 37.43 35.81 35.65 35.61 36.73 37.11 33.65 25.91 24.52 30.15 36.85 39.06 38.89 38.66 40.66 41.31 40.97 40.81
40.88 31.72 44.13 45.78 31.62 32.09 30.46 34.76 36.48 36.96 41.28 41.55 41.09 40.15 36.32 36.26 36.52 37.03 36.62 40.00 45.27 44.63 39.57 39.95 35.07 28.88 32.34 36.58 40.38 38.98 37.94 38.12 33.01 29.62 31.53 29.46 29.30 38.66 39.13 39.44 39.51 39.87 40.71 40.54 41.62
36.40 34.67 43.43 43.55 26.88 28.12 33.89 34.36 36.00 35.64 38.61 40.84 38.99 40.51 40.82 38.28 35.23 38.73 39.72 44.57 45.44 43.44 39.13 38.75 32.53 27.22 29.80 33.83 34.91 35.88 38.43 40.02 37.83 32.88 28.46 26.51 30.27 39.61 40.36 39.18 39.56 39.67 40.07 41.33 41.33
36.95 30.23 33.52 36.65 35.54 31.84 31.12 31.71 33.00 37.67 39.61 42.85 40.94 41.44 40.10 38.88 40.33 38.00 38.36 42.96 45.00 44.32 42.30 41.12 34.83 30.70 27.71 31.02 33.72 31.83 36.01 37.99 37.42 28.36 29.21 30.76 33.95 38.10 38.59 39.01 39.06 39.25 39.75 40.66 40.95
37.65 32.61 33.39 28.92 30.53 32.45 32.65 32.87 32.96 32.84 38.04 42.35 40.02 40.17 39.21 36.45 37.69 37.36 39.91 40.59 42.51 42.43 40.45 38.70 29.44 33.58 35.03 36.01 35.70 35.03 35.86 36.65 35.94 36.81 32.81 36.01 35.64 39.07 39.22 39.83 40.22 40.93 40.28 40.96 41.50
34.10 33.45 34.43 32.63 33.20 32.13 32.60 31.37 32.29 31.96 35.69 37.40 38.28 40.71 41.65 37.03 37.52 36.34 39.21 39.32 37.79 38.90 37.84 38.19 28.22 33.08 28.25 34.22 35.04 32.68 35.81 36.74 36.69 37.50 37.23 36.94 35.84 39.92 42.39 41.41 38.89 39.73 40.14 40.52 41.48
39.04 38.96 37.03 33.86 31.96 30.72 30.82 31.59 33.56 36.37 37.78 39.80 40.52 40.87 40.21 40.32 41.32 42.22 43.76 41.95 41.59 38.68 36.96 35.90 32.83 29.48 25.31 29.89 30.10 24.17 32.32 35.08 36.26 37.91 38.01 33.57 38.45 39.73 39.26 39.75 39.68 39.96 40.95 41.37 41.18
MSLP
1009.83 1010.00 1010.28 1010.54 1010.79 1010.99 1011.39 1011.61 1011.92 1012.40 1013.44 1014.03 1014.45 1014.49 1015.00 1015.12 1015.65 1015.88 1015.03 1014.79 1014.93 1015.45 1015.85 1015.96 1016.20 1016.00 1016.55 1016.98 1016.44 1015.59 1014.92 1013.96 1013.29 1012.48 1012.17 1012.35 1012.55 1012.96 1013.43 1014.12 1014.58 1015.49 1016.01 1016.22 1017.97
1009.26 1009.63 1009.84 1009.91 1010.16 1010.65 1010.95 1011.24 1011.84 1011.70 1012.75 1013.82 1014.49 1014.29 1014.84 1015.33 1015.40 1014.72 1014.10 1014.54 1014.78 1015.30 1015.93 1015.81 1016.05 1016.21 1016.80 1017.41 1017.53 1016.67 1015.20 1014.01 1013.19 1012.71 1012.51 1012.48 1012.68 1013.24 1013.78 1014.38 1015.33 1016.38 1017.08 1017.61 1018.44
1008.60 1008.99 1009.15 1009.28 1009.57 1010.00 1010.48 1010.94 1011.45 1011.56 1011.81 1013.07 1014.02 1014.15 1014.56 1015.31 1015.00 1013.01 1013.49 1014.24 1014.50 1015.05 1015.30 1015.58 1015.83 1016.16 1017.06 1017.44 1017.51 1016.86 1015.80 1014.68 1014.06 1013.89 1013.35 1013.01 1012.97 1013.23 1013.76 1014.26 1014.65 1015.92 1017.38 1018.29 1018.69
1007.90 1008.19 1008.40 1008.73 1009.04 1009.49 1009.98 1010.40 1010.88 1011.44 1011.24 1012.49 1013.17 1013.67 1014.21 1015.03 1013.20 1011.53 1012.43 1013.58 1014.24 1014.75 1015.36 1015.25 1015.54 1016.00 1016.60 1017.24 1017.08 1017.08 1016.00 1015.43 1014.89 1014.58 1014.21 1013.74 1013.44 1013.46 1013.72 1014.07 1014.04 1014.72 1016.55 1018.27 1018.76
1007.10 1007.45 1007.87 1008.17 1008.52 1008.99 1009.32 1009.91 1010.34 1011.08 1010.75 1012.08 1012.76 1013.01 1013.95 1013.45 1011.54 1010.79 1011.46 1012.42 1014.00 1014.70 1014.96 1015.03 1015.25 1015.41 1015.83 1016.22 1016.81 1016.90 1016.30 1016.23 1015.75 1015.14 1014.81 1014.43 1014.08 1013.82 1013.79 1013.98 1014.05 1014.99 1016.67 1017.99 1018.52
1006.40 1006.80 1007.24 1007.65 1008.02 1008.33 1008.87 1009.32 1009.84 1010.38 1010.33 1011.47 1012.20 1013.39 1012.87 1011.49 1011.64 1011.02 1011.36 1012.74 1013.29 1014.18 1014.39 1014.58 1014.81 1015.19 1015.48 1015.49 1015.82 1015.66 1016.25 1016.37 1016.17 1015.73 1015.39 1014.95 1014.34 1014.20 1013.76 1013.85 1014.47 1015.40 1016.59 1017.59 1018.08
1005.66 1006.07 1006.56 1007.06 1007.35 1007.79 1008.21 1008.82 1009.30 1009.81 1010.11 1010.73 1011.47 1012.59 1011.47 1009.85 1011.03 1010.86 1011.36 1012.02 1012.88 1013.35 1013.95 1014.31 1014.67 1015.36 1015.58 1015.58 1015.57 1015.69 1016.24 1016.55 1016.40 1016.21 1015.71 1015.36 1014.71 1014.35 1013.89 1013.84 1014.55 1015.42 1016.18 1017.08 1017.64
1005.06 1005.38 1005.74 1006.20 1006.44 1007.04 1007.68 1008.20 1008.92 1009.18 1009.83 1010.86 1011.50 1010.81 1009.92 1010.64 1010.15 1010.55 1011.31 1012.22 1013.04 1013.82 1014.41 1014.68 1014.98 1015.48 1016.02 1015.48 1015.77 1015.94 1016.33 1016.62 1016.05 1016.02 1015.74 1015.67 1014.68 1013.93 1013.70 1013.98 1014.50 1015.01 1015.68 1016.21 1016.74
1004.30 1004.63 1004.81 1005.10 1005.57 1006.24 1007.16 1007.91 1008.32 1008.85 1009.64 1010.46 1011.58 1010.57 1009.37 1009.25 1009.53 1009.74 1010.69 1011.49 1013.04 1014.20 1014.98 1015.08 1015.54 1016.18 1016.42 1016.02 1016.29 1015.94 1016.07 1015.80 1015.82 1015.81 1015.65 1015.78 1014.70 1013.86 1013.73 1013.90 1014.35 1014.49 1015.10 1015.33 1015.83
1003.69 1003.96 1004.39 1004.95 1005.51 1005.97 1006.66 1007.48 1007.77 1008.87 1009.78 1010.24 1010.27 1009.48 1009.23 1007.76 1008.88 1009.02 1010.48 1011.41 1012.65 1013.90 1015.37 1015.73 1016.27 1016.53 1016.41 1015.44 1014.54 1015.00 1015.49 1015.25 1014.89 1015.21 1015.33 1015.49 1014.64 1014.25 1013.86 1013.90 1014.13 1014.10 1014.31 1014.73 1015.04
1003.18 1003.61 1004.13 1004.74 1005.48 1006.13 1006.94 1007.32 1006.97 1007.68 1007.70 1007.08 1005.67 1005.82 1007.32 1007.65 1007.88 1008.60 1009.76 1011.68 1012.96 1013.77 1014.88 1015.89 1015.70 1014.79 1014.99 1015.02 1014.21 1014.30 1014.16 1014.32 1014.49 1014.52 1015.01 1014.97 1014.60 1014.17 1013.69 1013.66 1013.91 1014.01 1013.85 1014.04 1014.35
1002.60 1003.21 1003.89 1004.51 1005.14 1005.69 1006.32 1005.32 1005.54 1005.48 1006.68 1007.25 1006.44 1005.56 1006.21 1006.88 1006.87 1008.21 1009.24 1011.09 1011.96 1013.05 1014.55 1015.94 1014.44 1014.66 1014.81 1014.62 1014.59 1013.88 1013.72 1013.86 1014.21 1014.52 1014.90 1014.77 1014.17 1013.85 1013.36 1013.00 1013.20 1013.48 1013.45 1013.56 1013.62
1002.31 1002.93 1003.55 1004.25 1005.02 1005.59 1005.35 1004.94 1005.49 1005.91 1006.19 1005.37 1004.32 1004.39 1005.38 1006.33 1005.93 1006.76 1007.99 1009.58 1010.92 1012.41 1013.09 1013.29 1013.36 1014.12 1014.27 1014.40 1014.52 1014.34 1013.55 1013.49 1014.27 1015.19 1015.34 1015.17 1014.24 1013.58 1012.62 1012.34 1012.47 1012.36 1012.38 1012.81 1013.14
1002.03 1002.58 1003.19 1004.31 1005.08 1004.73 1005.08 1005.32 1005.56 1005.97 1006.26 1003.40 1003.64 1004.56 1005.26 1006.08 1006.08 1006.58 1008.22 1008.91 1010.64 1011.72 1013.10 1013.41 1013.50 1013.23 1013.85 1013.96 1013.85 1014.36 1014.14 1013.99 1014.83 1015.73 1015.89 1015.52 1014.08 1012.10 1011.44 1011.34 1011.43 1011.38 1011.57 1011.78 1012.16
1001.82 1002.34 1002.86 1003.79 1003.63 1004.23 1004.60 1004.65 1005.19 1006.02 1004.57 1002.93 1003.53 1004.22 1004.53 1005.22 1005.13 1006.36 1007.64 1008.57 1009.52 1010.61 1011.93 1012.35 1012.36 1012.57 1013.03 1013.19 1014.19 1015.00 1014.47 1015.01 1015.71 1016.41 1016.65 1015.99 1015.34 1012.25 1011.02 1010.72 1010.58 1010.77 1011.09 1011.26 1011.58
1001.83 1002.28 1002.72 1003.35 1003.76 1003.63 1003.77 1004.23 1004.48 1003.96 1002.57 1002.32 1002.61 1002.95 1004.28 1005.01 1005.58 1006.80 1007.46 1007.99 1008.66 1010.24 1011.56 1011.82 1012.33 1012.67 1012.71 1013.88 1014.88 1015.64 1015.75 1016.17 1016.89 1017.55 1017.53 1016.08 1015.43 1012.41 1011.24 1010.28 1010.10 1009.88 1010.16 1010.50 1011.00
1001.70 1002.22 1002.77 1002.78 1002.99 1003.98 1003.82 1004.10 1003.06 1001.98 1002.52 1002.46 1001.40 1002.47 1003.91 1004.62 1005.35 1005.09 1006.49 1007.23 1007.46 1008.81 1010.49 1011.59 1012.27 1012.33 1012.76 1014.23 1015.61 1015.85 1015.23 1017.31 1018.26 1018.47 1016.98 1015.76 1015.18 1012.55 1010.90 1010.41 1010.32 1010.11 1009.98 1009.99 1010.09
1001.48 1002.18 1002.64 1003.11 1003.50 1003.84 1005.09 1005.31 1003.09 1000.60 1000.72 1001.14 1001.03 1002.57 1003.20 1004.36 1005.40 1004.94 1006.04 1006.59 1006.81 1006.92 1008.96 1010.46 1012.43 1011.81 1012.52 1012.72 1014.11 1015.66 1014.73 1015.61 1016.97 1017.82 1016.93 1016.19 1014.28 1011.75 1010.60 1009.93 1009.79 1009.84 1009.62 1009.96 1010.29
1001.48 1002.36 1002.65 1002.78 1003.33 1003.56 1005.24 1003.80 1001.88 999.44 999.09 999.95 1001.02 1001.32 1002.75 1003.75 1004.84 1005.38 1005.04 1004.98 1005.03 1005.20 1006.10 1008.77 1010.95 1011.87 1012.52 1012.33 1013.02 1014.70 1014.78 1014.84 1015.97 1017.49 1017.14 1015.58 1013.58 1011.76 1010.30 1009.95 1009.67 1009.69 1009.69 1009.95 1010.24
1001.27 1002.14 1002.56 1002.96 1003.41 1003.85 1005.32 1003.62 1002.12 1000.30 998.88 998.63 997.85 999.35 1001.39 1002.86 1004.31 1004.77 1004.71 1004.52 1004.56 1005.01 1005.24 1006.96 1010.50 1012.07 1012.58 1012.46 1013.00 1012.80 1013.78 1014.82 1015.41 1016.87 1016.79 1014.75 1013.31 1011.42 1010.42 1009.93 1009.53 1009.69 1009.82 1010.00 1010.14
1001.29 1001.47 1002.44 1002.88 1003.08 1004.17 1003.61 1002.48 1001.37 999.98 998.21 997.00 997.14 997.52 999.40 1000.64 1002.56 1003.90 1003.56 1003.31 1003.37 1004.39 1005.20 1006.36 1009.36 1012.81 1012.86 1012.44 1012.21 1012.96 1013.15 1013.52 1014.17 1015.09 1015.15 1014.60 1012.41 1010.27 1009.81 1009.57 1009.46 1009.56 1009.79 1010.11 1010.57
1000.90 1002.09 1002.59 1002.48 1003.41 1003.47 1003.12 1002.25 1000.64 999.16 997.94 996.03 996.51 996.75 997.16 999.17 1001.02 1001.61 1002.05 1001.57 1002.62 1003.45 1004.70 1006.27 1008.85 1011.89 1012.57 1012.43 1012.25 1012.38 1012.55 1012.85 1013.73 1014.79 1014.70 1014.21 1012.13 1010.11 1009.49 1009.38 1009.48 1009.66 1009.98 1010.25 1010.61
1000.17 1001.17 1001.77 1002.22 1002.50 1003.25 1002.48 1001.16 1000.28 998.88 997.45 995.35 995.53 995.81 997.25 998.48 1000.47 1001.54 1001.81 1001.82 1002.70 1003.46 1004.06 1005.70 1008.59 1011.30 1013.40 1013.56 1012.72 1012.47 1012.33 1012.39 1013.07 1013.83 1013.94 1013.90 1011.31 1009.67 1009.33 1009.47 1009.48 1009.73 1009.90 1010.31 1010.66
1001.08 1002.10 1002.67 1002.68 1002.20 1001.53 1001.60 1000.90 1000.04 998.72 997.07 994.96 994.24 995.43 996.70 998.34 999.44 1000.72 1001.41 1002.16 1002.60 1003.26 1004.17 1005.26 1007.45 1008.26 1008.83 1009.08 1010.49 1011.89 1012.26 1012.72 1013.25 1013.58 1013.19 1011.98 1010.63 1009.87 1009.49 1009.28 1009.27 1009.38 1009.65 1009.94 1010.29
1000.56 1001.13 1001.62 1001.90 1001.63 1001.83 1001.97 1000.60 999.21 998.26 996.80 994.74 994.74 994.64 994.99 997.61 999.22 1000.11 1000.97 1002.65 1003.22 1003.77 1004.49 1005.28 1007.13 1008.17 1008.91 1009.23 1009.95 1010.12 1010.65 1011.86 1012.35 1011.29 1011.92 1009.16 1010.12 1009.56 1008.99 1008.79 1008.88 1008.96 1009.23 1009.60 1009.88
999.85 1000.44 1001.36 1001.37 1001.07 1001.50 1001.27 1000.39 999.12 998.15 996.90 995.16 994.01 994.17 995.09 996.17 996.33 997.85 1000.04 1002.22 1002.89 1004.43 1004.72 1005.31 1007.27 1008.36 1009.66 1009.71 1010.10 1010.80 1011.10 1010.90 1010.21 1010.42 1010.83 1009.81 1008.92 1008.64 1008.45 1008.51 1008.43 1008.65 1009.00 1009.50 1009.80
1000.41 1000.57 1000.49 1000.33 1000.61 1000.72 1000.49 1000.30 999.18 997.92 997.08 995.44 994.47 994.04 994.61 995.79 997.03 998.76 1000.06 1001.19 1001.54 1002.38 1004.41 1005.71 1007.18 1008.85 1010.79 1010.69 1011.10 1011.63 1009.18 1009.40 1009.45 1009.90 1008.99 1009.60 1006.92 1008.10 1008.33 1008.43 1008.41 1008.60 1008.94 1009.26 1009.62
Wind_Speed
17 17 18 19 20 19 18 18 14 12 9 10 16 17 13 12 11 10 11 8 11 8 1 6 1 4 6 2 6 6 4 7 12 6 1 7 4 2 3 6 2 4 5 12 16
19 18 18 19 20 21 19 17 16 15 12 10 17 18 14 14 11 18 11 10 12 12 7 10 7 6 4 5 2 3 4 8 5 5 4 8 6 7 4 8 5 7 13 16 15
20 19 18 18 18 21 19 17 16 15 14 9 14 20 17 14 14 11 15 14 14 13 11 11 11 7 2 2 5 1 11 6 2 7 7 1 3 7 5 7 9 12 13 14 13
21 19 18 18 18 21 21 18 17 17 15 14 8 22 20 15 14 17 23 18 14 12 11 12 11 12 8 7 4 4 2 6 2 3 3 2 3 4 6 2 4 15 19 17 14
19 18 17 17 18 22 22 20 19 19 16 15 10 17 15 12 20 1 24 24 16 12 15 15 14 12 10 9 8 6 3 1 5 2 4 4 4 5 8 5 6 20 18 17 17
18 16 16 18 19 22 24 22 20 20 18 16 12 19 17 29 14 8 20 18 15 16 16 15 10 10 5 4 11 11 8 5 1 3 2 2 5 3 7 5 8 15 15 14 17
17 17 17 19 21 22 24 24 22 21 21 19 9 21 19 26 20 12 18 15 17 18 15 14 6 13 4 4 2 3 7 2 5 4 3 2 4 6 10 7 9 12 12 14 14
17 18 19 19 22 21 26 24 23 21 21 20 18 15 12 22 16 14 17 16 14 13 3 7 5 4 2 5 5 8 3 4 6 7 4 4 11 10 10 8 9 10 10 13 15
17 18 17 16 17 20 25 24 20 21 20 19 12 21 10 22 18 19 21 20 13 8 7 6 5 3 0 8 4 5 4 6 7 15 5 7 4 5 2 6 8 9 10 11 11
12 13 13 12 11 15 18 12 20 21 18 7 18 15 3 25 23 21 19 21 13 16 6 4 4 4 3 11 11 11 5 10 8 10 6 6 9 5 8 8 8 8 10 10 10
17 14 12 15 13 15 13 6 8 12 10 15 13 12 14 21 21 21 23 21 12 9 10 5 6 14 18 14 5 16 12 10 12 9 7 13 12 13 10 8 8 8 7 9 12
16 17 15 14 14 14 11 9 17 3 8 22 23 17 17 26 22 24 27 12 17 16 12 6 16 12 13 14 13 9 14 10 8 6 4 7 14 13 12 11 10 11 9 9 8
15 15 16 14 12 3 10 13 8 9 4 16 25 20 21 22 29 33 31 13 18 16 18 14 6 11 13 15 13 15 13 9 6 5 3 4 7 10 9 13 12 11 9 10 10
15 13 16 15 5 3 9 15 4 12 7 10 17 8 11 17 18 27 25 13 6 12 14 6 9 19 15 15 10 5 2 7 11 7 2 6 7 7 14 19 18 17 13 13 11
14 12 16 20 6 8 4 4 6 8 10 16 14 10 17 17 24 25 26 4 18 14 9 8 15 17 18 15 11 2 9 10 7 5 4 5 3 6 1 13 19 18 17 14 13
14 12 15 9 2 0 3 7 7 11 10 8 10 14 23 11 28 29 18 3 7 16 3 8 8 10 6 6 10 13 14 11 7 4 3 7 6 5 5 5 4 7 16 18 13
15 12 11 2 0 10 5 4 8 11 7 7 14 23 24 16 18 31 20 16 15 14 12 9 13 5 14 15 11 3 9 4 2 2 6 1 6 13 7 8 1 6 6 7 12
14 12 7 3 5 5 7 1 10 13 7 5 20 26 21 22 13 25 27 18 12 10 14 9 5 9 15 10 12 16 3 6 8 6 3 2 8 6 6 6 5 7 7 2 6
14 5 2 3 7 8 4 3 6 5 11 18 26 28 7 15 10 21 26 30 14 20 14 14 5 13 19 9 15 6 4 3 7 2 4 6 6 7 12 7 6 6 1 2 3
5 6 3 11 10 6 2 5 6 8 15 25 23 23 15 15 14 15 25 26 17 18 7 9 10 3 11 11 2 7 8 5 1 6 5 5 4 6 4 6 6 6 8 7 6
4 3 4 10 2 5 3 4 6 11 15 26 21 22 21 21 18 21 28 21 21 25 8 14 8 3 5 7 11 6 6 4 6 4 5 0 5 4 7 5 3 7 5 5 5
4 5 6 6 3 2 5 6 4 7 20 15 12 15 31 33 23 20 27 13 25 22 19 4 8 8 8 3 4 4 8 4 5 5 3 4 7 5 7 6 5 6 5 5 6
3 2 2 2 5 5 4 6 5 5 21 12 14 6 25 19 15 14 21 11 24 22 20 11 6 10 4 6 3 10 11 13 4 4 6 7 6 7 8 5 5 8 5 5 5
4 4 0 2 2 4 6 8 7 9 17 13 21 20 25 22 10 19 18 20 25 24 10 8 6 6 12 6 12 8 12 12 6 3 3 9 5 3 6 7 6 5 5 7 6
1 2 3 6 4 5 5 6 5 7 5 16 21 27 34 17 16 10 23 13 21 15 8 6 6 7 8 12 16 24 27 19 19 21 13 18 14 10 8 9 9 7 2 4 6
3 3 2 1 4 12 7 3 4 3 6 13 22 29 28 20 16 28 34 20 23 9 12 4 5 6 5 9 12 15 18 23 27 23 21 12 15 4 9 5 1 2 1 4 5
1 1 3 6 4 5 4 4 7 5 8 8 12 23 26 19 18 15 17 10 23 28 19 11 7 5 2 6 8 2 27 25 22 18 26 16 18 4 6 6 5 4 6 8 5
Wind_Direction
236 237 231 230 225 235 234 232 213 194 225 277 278 199 195 170 139 175 196 214 206 147 34 152 129 116 85 20 328 319 249 231 244 244 163 135 139 303 22 109 75 49 22 123 146
232 234 236 232 223 228 232 233 230 190 202 241 277 211 183 162 179 212 202 204 136 150 202 177 165 134 144 147 306 270 249 229 297 314 6 145 194 144 152 137 124 92 86 116 148
227 230 235 233 228 227 227 227 230 218 190 218 251 228 169 170 215 222 182 168 158 169 211 201 173 136 211 87 185 223 244 305 30 8 16 27 209 140 203 175 190 162 140 150 161
226 225 232 234 230 225 226 224 223 227 194 221 296 215 161 185 234 181 166 168 159 175 217 207 216 181 188 185 185 217 288 325 62 32 293 309 313 184 206 75 334 155 145 164 173
226 225 226 235 234 224 223 222 216 220 204 209 216 203 160 208 221 334 169 159 165 182 201 204 200 197 201 182 152 225 164 255 351 348 278 29 286 237 214 163 45 123 140 172 181
227 227 227 230 231 223 216 220 220 220 206 207 219 236 192 219 211 146 161 161 169 184 197 204 192 196 257 227 176 205 168 171 218 326 324 255 227 86 252 156 136 137 156 171 189
230 235 231 228 233 221 218 217 217 216 203 215 275 217 208 211 202 136 167 169 175 184 190 204 213 188 184 151 163 167 164 148 210 223 222 245 259 206 262 154 166 155 167 175 189
229 238 237 229 230 222 214 214 218 211 205 214 220 205 226 199 197 182 168 163 184 192 187 76 62 106 304 142 155 167 164 170 208 172 220 143 242 226 215 173 184 184 180 176 187
233 235 228 211 221 221 209 213 207 200 212 205 213 232 190 164 223 160 166 160 118 91 72 84 71 108 234 148 150 211 176 190 150 196 145 177 229 209 41 179 212 195 198 177 179
205 186 188 194 209 207 211 226 209 208 216 252 222 183 213 177 192 159 172 139 129 118 78 91 97 170 186 175 187 155 192 211 205 182 184 190 247 169 185 188 225 246 197 176 184
212 199 185 174 201 215 207 177 194 200 204 226 191 155 149 175 157 163 151 143 135 149 163 178 190 201 189 191 172 175 190 183 199 175 153 219 235 235 228 175 203 233 258 195 183
209 199 196 188 187 210 201 211 213 85 187 236 203 162 157 177 157 162 139 159 156 172 125 139 218 190 186 197 214 225 188 204 87 145 177 224 240 236 230 237 209 200 215 244 195
191 188 193 191 173 164 266 223 233 172 285 193 174 157 165 178 164 165 155 153 171 162 177 192 180 187 178 199 215 209 205 190 130 145 270 340 269 245 242 222 233 230 192 204 210
183 186 184 169 130 179 236 235 243 132 249 191 165 158 166 175 175 161 160 136 158 167 172 213 170 175 188 205 183 192 3 91 118 153 223 168 287 226 219 221 219 223 213 205 209
178 180 175 166 147 173 176 131 231 144 225 177 154 133 152 179 141 170 170 107 159 158 154 163 172 175 182 192 189 179 99 96 94 84 5 182 277 254 303 211 219 218 225 221 212
175 185 186 202 238 114 67 15 222 194 221 189 141 157 162 156 164 155 168 120 137 141 139 157 164 171 161 93 112 152 99 71 62 78 259 196 181 263 225 219 228 197 215 218 211
176 196 184 151 254 71 44 35 218 222 144 193 148 151 166 157 181 162 163 165 158 140 169 125 171 116 136 97 137 311 159 88 100 181 224 105 212 246 277 283 291 288 276 239 204
178 203 193 179 170 98 53 73 250 166 165 182 161 154 175 157 207 161 161 168 162 162 124 146 196 176 175 162 166 187 239 145 182 184 188 313 235 244 254 259 253 265 237 335 356
180 182 167 191 87 84 99 229 290 177 137 153 151 161 125 150 136 169 174 174 173 179 157 164 118 168 183 128 146 184 188 79 107 37 66 204 263 290 264 272 248 257 238 244 322
159 161 150 110 123 88 217 237 271 228 159 160 160 168 153 154 151 176 183 181 169 198 136 142 111 198 173 128 236 164 142 90 310 138 228 243 241 229 231 248 233 208 222 202 223
148 163 116 142 151 78 259 253 262 254 187 170 161 161 164 155 154 173 190 175 180 186 147 132 110 160 117 207 173 151 177 187 142 169 168 228 258 228 188 163 134 155 126 123 94
150 168 156 152 119 126 244 215 251 250 216 206 164 161 162 164 169 171 186 184 177 176 164 113 110 147 179 35 187 234 165 165 160 224 221 133 271 184 158 168 138 125 129 116 102
109 67 56 265 147 197 239 275 245 268 213 177 151 176 159 157 147 189 180 170 177 176 162 160 138 115 163 342 229 208 190 193 105 86 203 146 247 196 138 164 170 158 91 138 156
141 155 138 259 252 166 250 257 218 226 236 193 165 137 153 161 134 176 159 169 175 177 136 105 152 148 186 139 119 171 191 198 206 151 156 232 215 158 166 177 154 166 161 161 191
152 165 152 179 213 194 230 304 202 221 252 209 161 159 165 153 143 152 154 178 168 158 151 124 134 140 144 150 162 180 180 179 197 215 190 234 221 224 201 190 172 166 171 330 297
131 159 208 160 122 191 210 234 265 176 216 190 173 167 166 170 175 159 150 163 176 162 167 179 135 114 19 151 160 175 183 191 204 207 228 239 265 185 218 227 273 130 74 250 248
156 135 258 151 161 169 205 203 274 179 238 257 197 161 183 162 136 142 153 145 172 168 180 175 129 122 123 101 99 5 199 196 212 206 222 221 226 162 205 241 212 236 249 255 254